Precipitable_Water
1.25 1.23 1.24 1.28 1.28 1.19 1.12 1.18 1.28 1.33 1.46 1.51 1.55 1.46 1.43 1.37 1.28 1.24 1.19 1.17 1.22 1.21
1.30 1.26 1.22 1.25 1.29 1.22 1.21 1.20 1.27 1.34 1.42 1.48 1.54 1.51 1.42 1.34 1.24 1.21 1.19 1.18 1.18 1.18
1.36 1.36 1.29 1.30 1.27 1.21 1.20 1.25 1.17 1.33 1.39 1.49 1.53 1.54 1.45 1.36 1.33 1.24 1.20 1.19 1.16 1.19
1.36 1.40 1.38 1.26 1.28 1.28 1.24 1.22 1.13 1.31 1.37 1.44 1.50 1.52 1.43 1.39 1.34 1.23 1.15 1.18 1.09 1.13
1.36 1.40 1.36 1.24 1.25 1.31 1.28 1.18 1.14 1.24 1.35 1.41 1.49 1.48 1.39 1.32 1.36 1.33 1.18 1.15 1.14 1.09
1.30 1.36 1.35 1.28 1.23 1.27 1.30 1.17 1.11 1.23 1.27 1.35 1.41 1.43 1.42 1.42 1.40 1.41 1.41 1.33 1.24 1.18
1.26 1.28 1.34 1.32 1.22 1.17 1.26 1.20 1.08 1.19 1.23 1.31 1.36 1.40 1.40 1.40 1.41 1.43 1.44 1.44 1.41 1.38
1.29 1.35 1.31 1.30 1.24 1.12 1.20 1.18 1.14 1.17 1.24 1.30 1.35 1.35 1.36 1.41 1.41 1.41 1.43 1.47 1.49 1.53
1.33 1.37 1.30 1.27 1.23 1.10 1.09 1.22 1.21 1.14 1.17 1.25 1.29 1.34 1.37 1.40 1.40 1.42 1.43 1.43 1.49 1.59
1.34 1.33 1.33 1.30 1.25 1.11 1.00 1.14 1.20 1.21 1.21 1.18 1.28 1.36 1.39 1.41 1.39 1.36 1.40 1.45 1.51 1.59
1.40 1.36 1.39 1.38 1.27 1.19 1.10 1.02 1.10 1.21 1.26 1.26 1.29 1.39 1.41 1.39 1.37 1.33 1.40 1.48 1.61 1.72
1.44 1.42 1.44 1.38 1.29 1.30 1.20 1.10 1.06 1.18 1.25 1.26 1.29 1.32 1.34 1.37 1.36 1.34 1.40 1.52 1.78 1.84
1.46 1.47 1.41 1.42 1.45 1.42 1.39 1.28 1.21 1.18 1.23 1.25 1.27 1.32 1.34 1.32 1.34 1.31 1.42 1.63 1.79 1.81
1.52 1.52 1.53 1.51 1.57 1.57 1.51 1.47 1.39 1.25 1.28 1.28 1.29 1.33 1.34 1.36 1.40 1.41 1.62 1.71 1.66 1.75
Wind_Speed
25 24 23 21 19 19 18 17 16 16 14 13 11 8 7 6 4 4 4 5 6 7
26 26 24 23 22 21 20 19 19 18 17 15 13 11 9 7 6 5 5 5 6 7
27 26 26 25 24 22 22 21 22 21 19 17 15 13 11 10 8 7 7 7 8 9
25 26 27 27 26 25 24 23 24 24 21 19 18 15 14 12 10 9 9 9 10 11
25 26 26 27 28 27 25 25 26 26 24 22 20 18 16 15 13 12 12 12 12 13
26 26 26 26 28 28 27 27 28 28 27 24 22 20 18 17 16 15 14 15 15 15
27 27 26 26 27 29 29 28 30 30 29 27 24 23 21 19 18 17 17 17 17 17
28 27 27 26 26 28 29 30 31 31 31 29 27 25 23 22 20 20 19 19 20 20
29 28 27 27 27 28 30 31 31 32 32 31 29 28 27 25 23 23 22 22 22 22
30 29 28 27 27 29 30 32 32 33 33 34 33 31 30 29 26 25 25 24 24 23
30 31 30 30 30 30 31 33 33 34 35 35 34 34 33 32 30 28 27 26 25 25
32 32 32 32 33 33 33 34 35 35 35 36 36 36 36 34 33 31 29 28 27 25
35 33 34 34 34 35 35 35 36 37 37 38 38 37 37 37 35 33 31 29 27 26
36 36 36 34 34 35 36 37 37 38 39 40 40 40 40 39 36 34 32 30 27 27
Wind_Direction
229 230 231 232 233 234 235 234 228 223 221 218 219 222 223 232 247 275 309 331 344 351
229 230 231 232 234 235 235 233 225 223 220 219 220 223 226 232 246 263 289 311 328 335
229 231 233 233 234 234 234 232 225 221 220 221 222 225 229 237 246 260 276 291 303 314
230 232 233 234 234 234 234 231 225 220 221 221 224 227 232 237 247 259 272 285 292 302
232 233 234 234 233 233 233 230 224 220 222 223 226 229 233 238 248 258 268 279 289 293
234 234 235 236 233 231 231 228 223 223 223 225 227 230 236 242 249 258 268 277 283 290
234 235 236 236 234 229 228 227 223 224 224 227 230 233 239 243 250 258 268 276 283 286
234 236 237 236 233 229 227 227 226 226 227 229 232 236 240 245 252 259 268 274 281 283
234 235 235 235 233 231 229 228 228 228 229 231 235 239 242 248 254 261 267 274 278 280
233 234 235 235 234 233 232 231 231 232 233 235 238 240 244 250 256 261 267 271 275 277
235 236 237 237 237 237 236 234 235 236 237 238 240 242 246 251 256 261 265 269 272 274
236 237 238 238 239 239 238 238 238 239 239 241 242 244 248 251 255 258 261 266 269 271
237 238 240 241 241 241 240 241 241 242 243 243 245 246 248 249 254 256 259 262 265 266
237 240 242 243 244 244 243 243 243 244 245 246 246 249 248 248 251 253 255 257 260 267